Regional Weather Roundup
Issued by NWS

Home | Current Version | Previous Version | Text Only | Print | Product List | Glossary On
Versions: 1 2 3 4 5 6 7 8 9 10 11 12 13 14 15 16 17 18 19 20 21 22 23 24 25 26 27 28 29 30 31 32 33 34 35 36 37 38 39 40 41 42 43 44 45 46 47 48 49 50
000
ASUS43 KMKX 260420
RWRWI

WISCONSIN REGIONAL WEATHER ROUNDUP
NATIONAL WEATHER SERVICE MILWAUKEE/SULLIVAN WI
1000 PM CST SUN FEB 25 2018

NOTE: "FAIR" INDICATES FEW OR NO CLOUDS BELOW 12,000 FEET WITH NO
SIGNIFICANT WEATHER AND/OR OBSTRUCTIONS TO VISIBILITY.

WIZ001-002-006>008-014>016-023>028-260500-
NORTHWEST WISCONSIN

CITY           SKY/WX    TMP DP  RH WIND       PRES   REMARKS
SUPERIOR ARPT  FAIR      24  19  80 SW9       29.86R WCI  15
ASHLAND        FAIR      26  19  74 SW15      29.86R WCI  14
HAYWARD        FAIR      24  18  77 SW9       29.88R WCI  14
SIREN          FAIR      23  18  81 SW10      29.91R WCI  13
CUMBERLAND     FAIR      18  16  93 S3        29.92R FOG
RICE LAKE      FAIR      18  16  94 S3        29.95R
CHETEK         FAIR      19  16  90 S6        29.95R WCI  11
LADYSMITH      CLOUDY    24  20  83 S9        29.94R WCI  15
EAU CLAIRE     FAIR      20  16  84 SW7       29.97R WCI  11
MENOMONIE      FAIR      22  17  82 SW6       29.98R WCI  15
NEW RICHMOND   FAIR      17  15  88 S6        29.96R WCI   9
OSCEOLA        FAIR      21  16  81 SW7       29.98R WCI  13
$$

WIZ003>005-009-010-017-018-260500-
NORTH CENTRAL WISCONSIN

CITY           SKY/WX    TMP DP  RH WIND       PRES   REMARKS
MANITOWISH WTR CLOUDY    23  20  90 SW9       29.84R WCI  13
ARBOR VITAE    CLOUDY    25  20  83 W10       29.84R WCI  15
WOODRUFF       CLOUDY    25  20  83 W10       29.84R WCI  15
RHINELANDER    CLOUDY    24  19  81 W13G22    29.87R WCI  12
EAGLE RIVER    CLOUDY    24  18  77 W13G18    29.85R WCI  12
LAND O LAKES   CLOUDY    24  19  81 W9        29.85R WCI  15
PHILLIPS       CLOUDY    24  20  85 SW12G17   29.88R WCI  13
TOMAHAWK       CLOUDY    24  19  80 W6        29.90R WCI  17
MEDFORD        CLOUDY    23  19  83 SW12G18   29.92R WCI  12
MERRILL        CLOUDY    25  20  80 W12G21    29.94R WCI  15
$$

WIZ029-030-035-036-043>047-260500-
CENTRAL WISCONSIN

CITY           SKY/WX    TMP DP  RH WIND       PRES   REMARKS
WAUSAU         CLOUDY    25  19  78 W10       29.93R WCI  15
MOSINEE        MOCLDY    23  19  86 SW12      29.96R WCI  12
MARSHFIELD     FAIR      23  18  81 W12       29.94R WCI  12
STEVENS POINT  FAIR      23  20  89 W6        29.98R WCI  16
WAUPACA        FAIR      30  23  73 SW13G20   29.99R WCI  20
WAUTOMA        FAIR      29  23  78 SW8       30.01R WCI  21
WISC RAPIDS    FAIR      24  18  77 MISG      29.99R
CAMP DOUGLAS   FAIR      27  22  81 W12       30.00R WCI  17
$$

WIZ011>013-019>022-031-037>040-048>050-260500-
NORTHEAST WISCONSIN

CITY           SKY/WX    TMP DP  RH WIND       PRES   REMARKS
ANTIGO         CLOUDY    24  19  81 W14G22    29.91R WCI  11
SHAWANO        CLOUDY    30  22  73 SW12G20   29.96R WCI  20
OCONTO         FAIR      29  20  69 W15G26    29.94R WCI  18
STURGEON BAY   FAIR      30  23  75 W14       29.95R WCI  19
GREEN BAY      FAIR      31  21  66 W17G25    29.97R WCI  19
MANITOWOC      FAIR      33  23  66 W21G28    29.97R WCI  21
APPLETON       CLEAR     30  19  64 W17       29.96R WCI  18
CLINTONVILLE   FAIR      28  21  76 W12       29.98R WCI  18
OSHKOSH        FAIR      31  23  72 W8        29.99R WCI  23
$$

WIZ032>034-041-042-053>061-260500-
SOUTHWEST WISCONSIN

CITY           SKY/WX    TMP DP  RH WIND       PRES   REMARKS
LA CROSSE      FAIR      28  21  75 VRB3      30.04R
SPARTA         FAIR      27  22  83 SW3       30.03S
VIROQUA        FAIR      26  24  91 CALM      30.02R
BOSCOBEL       FAIR      30  24  78 S6        30.07R WCI  24
PRAIRIE DU CHI FAIR      29  23  77 CALM      30.07R
PLATTEVILLE    FAIR      31  28  88 W9        30.07R WCI  23
$$

WIZ056-057-062-063-064-067-068-260500-
SOUTH CENTRAL WISCONSIN

CITY           SKY/WX    TMP DP  RH WIND       PRES   REMARKS
REEDSBURG      FAIR      28  23  79 W6        30.04R WCI  22
BARABOO/DELLS  FAIR      29  23  78 W6        30.02R WCI  23
LONE ROCK      FAIR      31  25  78 W8        30.06R WCI  23
MINERAL POINT  FAIR      32  30  93 W9        30.04R WCI  24
MADISON        FAIR      31  24  75 VRB3      30.04R
MIDDLETON      FAIR      32  27  80 W12       30.03R WCI  23
WATERTOWN      FAIR      32  26  79 W5        30.03R WCI  27
MONROE         FAIR      32  27  80 W14       30.05R WCI  22
JANESVILLE     FAIR      32  28  86 SW6       30.07R WCI  26
$$

WIZ051-052-058>065-066-070>072-260500-
SOUTHEAST WISCONSIN

CITY           SKY/WX    TMP DP  RH WIND       PRES   REMARKS
MILWAUKEE      FAIR      37  25  61 W15G23    30.03R WCI  28
WAUKESHA       FAIR      32  25  74 W10G17    30.04R WCI  24
MILWAUKEE/TIMM FAIR      34  23  64 W15       30.04R WCI  24
RACINE         FAIR      35  26  69 W9        30.06R WCI  28
BURLINGTON     FAIR      33  26  73 W7        30.06R WCI  27
KENOSHA        FAIR      35  25  66 W12       30.05R WCI  27
FOND DU LAC    FAIR      32  23  69 SW9       30.00R WCI  24
SHEBOYGAN      FAIR      33  25  72 W15       29.99R WCI  23
WEST BEND      FAIR      32  27  80 W14G20    30.01R WCI  22
JUNEAU         FAIR      30  25  79 SW12      30.03R WCI  21
$$

LSZ147-162-260500-
LAKE SUPERIOR

STATION/POSITION TIME  TEMP    WIND        PRES    WAVE
                       AIR SEA DIR/SP/G            HT/PER
                 (UTC) (F)     (DEG/KT/KT) (MB)    (FT/S)
DEVILS ISLAND    0400   29     240/ 24/ 28 1010.3R
SAXON HARBOR     0340   28     210/ 11/ 17 1010.2R
$$

LMZ867-665-643>646-260500-
LAKE MICHIGAN

STATION/POSITION TIME  TEMP    WIND        PRES    WAVE
                       AIR SEA DIR/SP/G            HT/PER
                 (UTC) (F)     (DEG/KT/KT) (MB)    (FT/S)
NORTHPORT PIER   0340   29                 1012.9R
KEWAUNEE LAKESHO 0354   33     270/ 16/ 24 1013.8R
SHEBOYGAN LAKESH 0400   35     250/ 15/ 18 1016.1R
PORT WASHINGTON  0330   36     260/ 13/ 18 1016.9R
KENOSHA   LAKESH 0400   37     260/  9/ 15 1018.3
$$

TC  - TEMPERATURE IN CELSIUS
VSB - VISIBILITY IN STATUTE MILES
WCI - WIND CHILL INDEX
HX  - HEAT INDEX





USA.gov is the U.S. government's official web portal to all federal, state and local government web resources and services.